Columbia, SC

3:01 PM EST on February 21, 2018 (GMT -0500)
Columbia Metro

Weather History for KCAE - June, 2013

Change the Weather History Date:

Sunday, June 16, 2013

  Actual Average Record
Temperature  
Mean Temperature 77 °F 79 °F  
Max Temperature 88 °F 90 °F 101 °F (2015)
Min Temperature 65 °F 69 °F 55 °F (1955)
Degree Days  
Heating Degree Days 0 0  
Month to date heating degree days 0 0  
Since 1 June heating degree days 0 0  
Since 1 July heating degree days 2261 2551  
Cooling Degree Days 12 14  
Month to date cooling degree days 221 205  
Year to date cooling degree days 541 526  
Since 1 June cooling degree days 221 205  
Growing Degree Days 26 (Base 50)    
Moisture  
Dew Point 64 °F    
Average Humidity 64    
Maximum Humidity 81    
Minimum Humidity 46    
Precipitation  
Precipitation 0.00 in 0.17 in 3.58 in (1976)
Month to date precipitation 3.76 2.41  
Year to date precipitation 22.38 18.92  
Sea Level Pressure  
Sea Level Pressure 30.09 in    
Wind  
Wind Speed 4 mph (SSW)    
Max Wind Speed 14 mph    
Max Gust Speed 17 mph    
Visibility 10 miles    
Events      
T = Trace of Precipitation, MM = Missing Value Source: NWS Daily Summary

Daily Weather History Graph

Daily Weather History Graph

Search for Another Location

Airport or City:

Trip Planner

Search our weather history database for the weather conditions in past years. The results will help you decide how hot, cold, wet, or windy it might be!

Date:

Astronomy

Jun. 16, 2013 Rise Set
Actual Time 6:13 AM EDT 8:37 PM EDT
Civil Twilight 5:43 AM EDT 9:06 PM EDT
Nautical Twilight 5:07 AM EDT 9:42 PM EDT
Astronomical Twilight 4:28 AM EDT 10:22 PM EDT
Moon 1:28 PM EDT (6/16) 12:59 AM EDT (6/16)
Length of Visible Light 15h 22m
Length of Day
14h 24m
Waxing Crescent, 49% of the Moon is Illuminated
Jun 16
Waxing Crescent
Jun 16
First Quarter
Jun 23
Full
Jun 30
Last Quarter
Jul 8
New

Hourly Weather History & Observations

Time (EDT) Temp. Heat Index Dew Point Humidity Pressure Visibility Wind Dir Wind Speed Gust Speed Precip Events Conditions
12:56 AM 72.0 °F - 61.0 °F 68% 30.13 in 10.0 mi South 4.6 mph - N/A   Clear
1:56 AM 71.1 °F - 60.1 °F 68% 30.12 in 10.0 mi Calm Calm - N/A   Clear
2:56 AM 69.1 °F - 59.0 °F 70% 30.11 in 10.0 mi Calm Calm - N/A   Clear
3:56 AM 69.1 °F - 60.1 °F 73% 30.10 in 10.0 mi Calm Calm - N/A   Clear
4:56 AM 68.0 °F - 59.0 °F 73% 30.11 in 10.0 mi Calm Calm - N/A   Clear
5:56 AM 66.0 °F - 60.1 °F 81% 30.12 in 10.0 mi Calm Calm - N/A   Clear
6:56 AM 68.0 °F - 61.0 °F 78% 30.14 in 10.0 mi Calm Calm - N/A   Partly Cloudy
7:56 AM 70.0 °F - 63.0 °F 78% 30.15 in 10.0 mi Calm Calm - N/A   Partly Cloudy
8:56 AM 75.9 °F - 66.0 °F 71% 30.17 in 10.0 mi SW 6.9 mph - N/A   Scattered Clouds
9:56 AM 80.1 °F 82.7 °F 68.0 °F 67% 30.16 in 10.0 mi WSW 9.2 mph - N/A   Scattered Clouds
10:56 AM 80.1 °F 82.3 °F 66.9 °F 64% 30.14 in 10.0 mi SW 4.6 mph - N/A   Mostly Cloudy
11:56 AM 84.0 °F 86.5 °F 66.9 °F 56% 30.13 in 10.0 mi SSW 8.1 mph - N/A   Mostly Cloudy
12:56 PM 82.9 °F 84.6 °F 64.9 °F 54% 30.11 in 10.0 mi SW 8.1 mph - N/A   Mostly Cloudy
1:56 PM 84.9 °F 86.6 °F 64.9 °F 51% 30.09 in 10.0 mi Variable 5.8 mph - N/A   Mostly Cloudy
2:56 PM 87.1 °F 88.3 °F 64.0 °F 46% 30.06 in 10.0 mi SW 3.5 mph - N/A   Mostly Cloudy
3:56 PM 86.0 °F 87.6 °F 64.9 °F 49% 30.05 in 10.0 mi SW 4.6 mph - N/A   Mostly Cloudy
4:56 PM 87.1 °F 88.3 °F 64.0 °F 46% 30.05 in 10.0 mi SSW 6.9 mph - N/A   Scattered Clouds
5:56 PM 87.1 °F 88.3 °F 64.0 °F 46% 30.04 in 10.0 mi WSW 8.1 mph - N/A   Mostly Cloudy
6:56 PM 86.0 °F 87.3 °F 64.0 °F 48% 30.03 in 10.0 mi South 8.1 mph - N/A   Scattered Clouds
7:56 PM 84.0 °F 85.8 °F 64.9 °F 53% 30.03 in 10.0 mi South 5.8 mph - N/A   Scattered Clouds
8:56 PM 80.1 °F 82.3 °F 66.9 °F 64% 30.03 in 10.0 mi Calm Calm - N/A   Scattered Clouds
9:56 PM 78.1 °F - 66.9 °F 68% 30.04 in 10.0 mi Calm Calm - N/A   Scattered Clouds
10:56 PM 77.0 °F - 66.0 °F 69% 30.06 in 10.0 mi South 10.4 mph - N/A   Clear
11:56 PM 75.9 °F - 64.9 °F 69% 30.07 in 10.0 mi SSW 5.8 mph - N/A   Scattered Clouds